Weather History for KLIT - August, 2013

Change the Weather History Date:

Thursday, August 29, 2013

  Actual Average Record
Temperature  
Mean Temperature 85 °F 81 °F  
Max Temperature 97 °F 91 °F 107 °F (2000)
Min Temperature 73 °F 71 °F 52 °F (1986)
Degree Days  
Heating Degree Days 0 0  
Month to date heating degree days 0 0  
Since 1 June heating degree days 0 0  
Since 1 July heating degree days 0 0  
Cooling Degree Days 20 16  
Month to date cooling degree days 465 509  
Year to date cooling degree days 1662 1768  
Since 1 June cooling degree days 1401 1487  
Growing Degree Days 34 (Base 50)    
Moisture  
Dew Point 66 °F    
Average Humidity 58    
Maximum Humidity 79    
Minimum Humidity 36    
Precipitation  
Precipitation 0.00 in 0.09 in 4.15 in (1978)
Month to date precipitation 3.56 2.41  
Year to date precipitation 34.60 31.23  
Snow  
Snow 0.00 in 0.00 in - ()
Month to date snowfall 0.0 0.0  
Since 1 June snowfall 0.0 0.0  
Since 1 July snowfall 0.0 0.0  
Snow Depth 0.00 in    
Sea Level Pressure  
Sea Level Pressure 30.03 in    
Wind  
Wind Speed 5 mph (SSW)    
Max Wind Speed 12 mph    
Max Gust Speed 15 mph    
Visibility 10 miles    
Events      
T = Trace of Precipitation, MM = Missing Value Source: NWS Daily Summary

Daily Weather History Graph

Daily Weather History Graph

Search for Another Location

Airport or City:

Trip Planner

Search our weather history database for the weather conditions in past years. The results will help you decide how hot, cold, wet, or windy it might be!

Date:

Astronomy

Aug. 29, 2013 Rise Set
Actual Time 6:39 AM CDT 7:39 PM CDT
Civil Twilight 6:14 AM CDT 8:04 PM CDT
Nautical Twilight 5:43 AM CDT 8:35 PM CDT
Astronomical Twilight 5:11 AM CDT 9:07 PM CDT
Moon 12:38 AM CDT (8/29) 3:00 PM CDT (8/29)
Length of Visible Light 13h 50m
Length of Day
12h 59m
Last Quarter, 38% of the Moon is Illuminated
Aug 29
Last Quarter
Sep 5
New
Sep 12
First Quarter
Sep 19
Full
Sep 26
Last Quarter

Hourly Weather History & Observations

Time (CDT) Temp. Heat Index Dew Point Humidity Pressure Visibility Wind Dir Wind Speed Gust Speed Precip Events Conditions
12:53 AM 78.1 °F - 66.0 °F 66% 30.05 in 10.0 mi Calm Calm - N/A   Partly Cloudy
1:53 AM 78.1 °F - 66.0 °F 66% 30.05 in 10.0 mi Calm Calm - N/A   Partly Cloudy
2:53 AM 75.0 °F - 66.0 °F 73% 30.05 in 10.0 mi WSW 4.6 mph - N/A   Clear
3:53 AM 75.0 °F - 66.0 °F 73% 30.05 in 10.0 mi WSW 5.8 mph - N/A   Clear
4:53 AM 73.9 °F - 66.0 °F 76% 30.05 in 10.0 mi WSW 5.8 mph - N/A   Clear
5:53 AM 73.0 °F - 66.0 °F 79% 30.05 in 10.0 mi WSW 4.6 mph - N/A   Clear
6:53 AM 73.0 °F - 64.9 °F 76% 30.07 in 10.0 mi WSW 3.5 mph - N/A   Clear
7:53 AM 77.0 °F - 66.0 °F 69% 30.08 in 7.0 mi SW 3.5 mph - N/A   Clear
8:53 AM 82.9 °F 84.6 °F 64.9 °F 54% 30.09 in 7.0 mi West 6.9 mph - N/A   Clear
9:53 AM 88.0 °F 89.6 °F 64.9 °F 46% 30.08 in 10.0 mi West 9.2 mph - N/A   Clear
10:53 AM 91.0 °F 93.0 °F 64.9 °F 42% 30.09 in 10.0 mi WSW 10.4 mph - N/A   Clear
11:53 AM 91.9 °F 93.3 °F 64.0 °F 39% 30.07 in 10.0 mi WSW 8.1 mph - N/A   Partly Cloudy
12:53 PM 95.0 °F 97.9 °F 66.0 °F 38% 30.06 in 10.0 mi Variable 3.5 mph - N/A   Partly Cloudy
1:53 PM 93.9 °F 96.1 °F 64.9 °F 38% 30.03 in 10.0 mi SE 5.8 mph - N/A   Scattered Clouds
2:53 PM 95.0 °F 97.9 °F 66.0 °F 38% 30.01 in 10.0 mi Calm Calm - N/A   Partly Cloudy
3:53 PM 96.1 °F 99.9 °F 66.9 °F 38% 29.99 in 10.0 mi Variable 3.5 mph - N/A   Partly Cloudy
4:53 PM 95.0 °F 97.4 °F 64.9 °F 37% 29.98 in 10.0 mi NE 4.6 mph - N/A   Partly Cloudy
5:53 PM 93.9 °F 97.0 °F 66.0 °F 40% 29.97 in 10.0 mi South 5.8 mph - N/A   Partly Cloudy
6:53 PM 91.9 °F 95.4 °F 66.9 °F 44% 29.98 in 10.0 mi SSE 4.6 mph - N/A   Partly Cloudy
7:53 PM 88.0 °F 91.4 °F 68.0 °F 51% 29.99 in 10.0 mi SE 3.5 mph - N/A   Partly Cloudy
8:53 PM 82.9 °F 87.5 °F 71.1 °F 67% 30.00 in 10.0 mi SE 3.5 mph - N/A   Clear
9:53 PM 82.0 °F 85.5 °F 69.1 °F 65% 30.00 in 10.0 mi South 3.5 mph - N/A   Clear
10:53 PM 81.0 °F 84.1 °F 69.1 °F 67% 30.00 in 10.0 mi South 6.9 mph - N/A   Clear
11:53 PM 80.1 °F 82.9 °F 69.1 °F 69% 30.01 in 10.0 mi Calm Calm - N/A   Clear